DW9161 Weather Reports


Display with metric or nautical units.
time (UTC)temp
F
wind
direction
speed
MPH
gust
MPH
rain 1hr
in
rain 24hr
in
rain mn
in
humidity
%
barometer
mb
20260906034050 84 171 2.0 3.0 0.00 0.00 0.00 75 1015.0
20260906033532 84 171 2.0 3.0 0.00 0.00 0.00 75 1014.8
20260906033050 84 171 2.0 4.0 0.00 0.00 0.00 75 1014.8
20260906032547 84 171 2.0 4.0 0.00 0.00 0.00 75 1014.8
20260906032108 84 172 2.0 4.0 0.00 0.00 0.00 75 1014.8
20260906031545 84 172 2.0 4.0 0.00 0.00 0.00 75 1014.6
20260906031044 84 172 2.0 4.0 0.00 0.00 0.00 75 1014.5
20260906030551 84 172 2.0 4.0 0.00 0.00 0.00 75 1014.4
20260906030031 84 172 2.0 4.0 0.00 0.00 0.00 75 1014.2
20260906025549 85 172 2.0 4.0 0.00 0.00 0.00 75 1014.2
20260906025047 85 173 2.0 4.0 0.00 0.00 0.00 75 1014.1
20260906024606 85 174 2.0 4.0 0.00 0.00 0.00 75 1014.2
20260906024103 85 176 2.0 4.0 0.00 0.00 0.00 75 1014.1
20260906023539 85 179 3.0 4.0 0.00 0.00 0.00 75 1014.0
20260906023050 85 186 2.0 4.0 0.00 0.00 0.00 75 1014.1
20260906022544 85 188 1.0 3.0 0.00 0.00 0.00 75 1014.1
20260906022103 85 188 2.0 3.0 0.00 0.00 0.00 75 1014.0
20260906021537 85 188 2.0 4.0 0.00 0.00 0.00 75 1013.8
20260906021054 85 190 2.0 4.0 0.00 0.00 0.00 75 1013.7
20260906020605 85 191 2.0 3.0 0.00 0.00 0.00 75 1013.5
20260906020039 85 191 2.0 3.0 0.00 0.00 0.00 75 1013.5
20260906015537 85 191 1.0 3.0 0.00 0.00 0.00 74 1013.4
20260906015102 86 191 2.0 3.0 0.00 0.00 0.00 74 1013.4
20260906014544 86 191 2.0 3.0 0.00 0.00 0.00 74 1013.3
20260906014036 86 191 1.0 3.0 0.00 0.00 0.00 74 1013.3
20260906013548 86 191 1.0 3.0 0.00 0.00 0.00 74 1013.1
20260906013034 86 191 1.0 3.0 0.00 0.00 0.00 73 1013.2
20260906012543 86 191 1.0 2.0 0.00 0.00 0.00 73 1013.1
20260906012054 86 191 1.0 3.0 0.00 0.00 0.00 73 1013.1
20260906011548 87 191 2.0 3.0 0.00 0.00 0.00 72 1013.0
20260906011050 87 191 1.0 3.0 0.00 0.00 0.00 72 1012.9
20260906010611 87 191 1.0 3.0 0.00 0.00 0.00 72 1012.9
20260906010039 87 191 1.0 3.0 0.00 0.00 0.00 72 1012.9
20260906005535 87 191 1.0 3.0 0.00 0.00 0.00 71 1012.8
20260906005049 87 191 1.0 2.0 0.00 0.00 0.00 71 1012.9
20260906004540 88 191 1.0 3.0 0.00 0.00 0.00 70 1012.9
20260906004053 88 191 2.0 3.0 0.00 0.00 0.00 70 1012.8
20260906003548 88 191 1.0 3.0 0.00 0.00 0.00 70 1012.8
20260906003035 89 191 2.0 3.0 0.00 0.00 0.00 70 1012.8
20260906002556 89 191 2.0 3.0 0.00 0.00 0.00 69 1012.7
20260906002057 89 191 1.0 3.0 0.00 0.00 0.00 68 1012.7
20260906001610 90 191 2.0 3.0 0.00 0.00 0.00 68 1012.7
20260906001045 90 193 2.0 3.0 0.00 0.00 0.00 68 1012.8
20260906000628 90 193 1.0 4.0 0.00 0.00 0.00 67 1012.7
20260906000036 90 193 2.0 4.0 0.00 0.00 0.00 66 1012.8
20260905235548 91 195 2.0 3.0 0.00 0.00 0.00 66 1012.8
20260905235044 91 195 1.0 3.0 0.00 0.00 0.00 66 1012.7
20260905234536 91 195 1.0 3.0 0.00 0.00 0.00 66 1012.8
20260905234100 91 195 2.0 4.0 0.00 0.00 0.00 64 1012.7
20260905233543 92 198 1.0 4.0 0.00 0.00 0.00 65 1012.7
20260905233035 92 178 2.0 4.0 0.00 0.00 0.00 64 1012.8
20260905232541 92 178 2.0 4.0 0.00 0.00 0.00 63 1012.7
20260905232034 92 184 2.0 4.0 0.00 0.00 0.00 63 1012.7
20260905231550 92 189 2.0 3.0 0.00 0.00 0.00 63 1012.7
20260905231051 92 190 1.0 3.0 0.00 0.00 0.00 63 1012.6
20260905230605 92 190 1.0 4.0 0.00 0.00 0.00 63 1012.6
20260905230053 92 190 1.0 4.0 0.00 0.00 0.00 63 1012.7
20260905225540 92 195 2.0 5.0 0.00 0.00 0.00 62 1012.6
20260905225052 92 161 2.0 4.0 0.00 0.00 0.00 62 1012.6
20260905224537 92 173 1.0 5.0 0.00 0.00 0.00 63 1012.5
20260905224048 92 217 1.0 5.0 0.00 0.00 0.00 63 1012.5
20260905223553 92 106 2.0 4.0 0.00 0.00 0.00 62 1012.4
20260905223110 92 105 2.0 5.0 0.00 0.00 0.00 62 1012.4
20260905222540 92 120 2.0 5.0 0.00 0.00 0.00 62 1012.3
20260905222037 92 127 2.0 5.0 0.00 0.00 0.00 63 1012.3
20260905221543 92 132 2.0 4.0 0.00 0.00 0.00 62 1012.1
20260905221038 92 133 2.0 4.0 0.00 0.00 0.00 63 1012.1
20260905220616 92 133 2.0 5.0 0.00 0.00 0.00 62 1012.1
20260905220034 91 106 2.0 5.0 0.00 0.00 0.00 62 1012.2
20260905215543 92 106 2.0 6.0 0.00 0.00 0.00 62 1012.4
20260905215039 91 106 3.0 6.0 0.00 0.00 0.00 62 1012.4
20260905214615 91 82 2.0 6.0 0.00 0.00 0.00 62 1012.5
20260905214058 92 113 3.0 6.0 0.00 0.00 0.00 61 1012.5
20260905213557 92 139 2.0 6.0 0.00 0.00 0.00 60 1012.5
20260905213106 92 139 3.0 6.0 0.00 0.00 0.00 59 1012.6
20260905212543 92 122 2.0 5.0 0.00 0.00 0.00 61 1012.7
20260905212051 92 124 2.0 5.0 0.00 0.00 0.00 61 1012.9
20260905211535 92 169 2.0 5.0 0.00 0.00 0.00 59 1012.9
20260905211039 92 230 3.0 5.0 0.00 0.00 0.00 58 1013.1
20260905210613 92 184 2.0 4.0 0.00 0.00 0.00 59 1013.1
20260905210046 92 120 2.0 4.0 0.00 0.00 0.00 58 1013.2
20260905205540 92 131 2.0 4.0 0.00 0.00 0.00 59 1013.3
20260905205053 92 160 1.0 6.0 0.00 0.00 0.00 58 1013.4
20260905204544 92 160 2.0 6.0 0.00 0.00 0.00 58 1013.4
20260905204104 92 102 2.0 5.0 0.00 0.00 0.00 58 1013.5
20260905203548 92 115 1.0 3.0 0.00 0.00 0.00 58 1013.7
20260905203034 92 115 1.0 6.0 0.00 0.00 0.00 58 1013.9
20260905202600 92 114 2.0 4.0 0.00 0.00 0.00 57 1014.0
20260905202038 92 97 2.0 5.0 0.00 0.00 0.00 58 1014.1
20260905201536 92 89 2.0 4.0 0.00 0.00 0.00 60 1014.3
20260905201042 92 102 1.0 4.0 0.00 0.00 0.00 58 1014.5
20260905200555 91 102 1.0 4.0 0.00 0.00 0.00 59 1014.6
20260905200040 91 103 2.0 4.0 0.00 0.00 0.00 59 1014.6
20260905195549 91 88 1.0 5.0 0.00 0.00 0.00 60 1014.7
20260905195109 91 357 3.0 5.0 0.00 0.00 0.00 60 1014.7
20260905194558 91 97 2.0 4.0 0.00 0.00 0.00 58 1014.7
20260905194043 91 165 1.0 4.0 0.00 0.00 0.00 58 1014.8
20260905193536 91 314 2.0 4.0 0.00 0.00 0.00 56 1014.7
20260905193047 91 359 1.0 4.0 0.00 0.00 0.00 60 1014.8
20260905192606 90 360 1.0 5.0 0.00 0.00 0.00 60 1014.8
20260905192038 90 112 3.0 5.0 0.00 0.00 0.00 60 1015.0
20260905191544 90 116 2.0 6.0 0.00 0.00 0.00 60 1015.1
20260905191036 90 103 4.0 6.0 0.00 0.00 0.00 59 1015.2
20260905190612 90 358 2.0 6.0 0.00 0.00 0.00 60 1015.4
20260905190056 90 110 3.0 6.0 0.00 0.00 0.00 63 1015.4
20260905185537 90 62 2.0 6.0 0.00 0.00 0.00 62 1015.5
20260905185152 90 94 2.0 6.0 0.00 0.00 0.00 64 1015.8
20260905184549 90 2 2.0 9.0 0.00 0.00 0.00 65 1015.9
20260905184041 90 84 2.0 9.0 0.00 0.00 0.00 63 1016.0
20260905183608 90 18 2.0 7.0 0.00 0.00 0.00 64 1016.0
20260905183047 90 15 1.0 9.0 0.00 0.00 0.00 64 1016.1
20260905182547 89 53 3.0 9.0 0.00 0.00 0.00 67 1016.2
20260905182035 89 358 3.0 9.0 0.00 0.00 0.00 67 1016.2
20260905181541 89 344 3.0 9.0 0.00 0.00 0.00 67 1016.3
20260905181049 88 1 3.0 6.0 0.00 0.00 0.00 67 1016.0
20260905180612 88 109 3.0 6.0 0.00 0.00 0.00 66 1016.0
20260905175539 88 38 3.0 7.0 0.00 0.00 0.00 66 1015.9
20260905175039 88 43 3.0 9.0 0.00 0.00 0.00 68 1016.0
20260905174538 88 10 3.0 9.0 0.00 0.00 0.00 70 1016.0
20260905174045 88 352 4.0 7.0 0.00 0.00 0.00 68 1015.9
20260905173555 88 305 3.0 6.0 0.00 0.00 0.00 68 1016.0
20260905173050 88 308 2.0 8.0 0.00 0.00 0.00 67 1016.0
20260905172533 88 359 3.0 8.0 0.00 0.00 0.00 67 1015.9
20260905172039 88 350 4.0 11.0 0.00 0.00 0.00 68 1015.9
20260905171540 87 321 4.0 9.0 0.00 0.00 0.00 69 1016.0
20260905171043 87 1 5.0 13.0 0.00 0.00 0.00 69 1015.9
20260905170609 87 358 5.0 13.0 0.00 0.00 0.00 68 1016.0
20260905170054 88 335 4.0 10.0 0.00 0.00 0.00 69 1016.0
20260905165555 87 325 3.0 9.0 0.00 0.00 0.00 70 1016.0
20260905165048 87 337 3.0 12.0 0.00 0.00 0.00 70 1016.1
20260905164617 88 307 4.0 12.0 0.00 0.00 0.00 69 1016.1
20260905164045 88 336 5.0 10.0 0.00 0.00 0.00 67 1016.1
20260905163612 88 347 5.0 10.0 0.00 0.00 0.00 67 1016.1
20260905163034 88 324 2.0 6.0 0.00 0.00 0.00 67 1016.1
20260905162554 88 341 3.0 6.0 0.00 0.00 0.00 67 1016.0
20260905162048 88 319 2.0 5.0 0.00 0.00 0.00 67 1015.9
20260905161612 87 318 2.0 5.0 0.00 0.00 0.00 69 1015.9
20260905161100 87 319 3.0 5.0 0.00 0.00 0.00 68 1015.9
20260905160605 87 322 3.0 5.0 0.00 0.00 0.00 69 1015.8
20260905160036 87 321 2.0 5.0 0.00 0.00 0.00 70 1015.6
20260905155539 87 309 3.0 5.0 0.00 0.00 0.00 69 1015.6
20260905155046 87 192 0.0 2.0 0.00 0.00 0.00 70 1015.6
20260905154557 86 192 1.0 2.0 0.00 0.00 0.00 67 1015.6
20260905154040 86 191 1.0 2.0 0.00 0.00 0.00 65 1015.6
20260905153536 86 192 0.0 3.0 0.00 0.00 0.00 66 1015.6
20260905153111 86 190 2.0 3.0 0.00 0.00 0.00 65 1015.6
20260905152536 86 188 0.0 3.0 0.00 0.00 0.00 65 1015.5
20260905152036 86 188 1.0 3.0 0.00 0.00 0.00 65 1015.5
20260905151542 86 188 0.0 2.0 0.00 0.00 0.00 66 1015.4
20260905151048 86 188 1.0 2.0 0.00 0.00 0.00 66 1015.5
20260905150610 86 188 0.0 1.0 0.00 0.00 0.00 66 1015.4
20260905150037 85 188 0.0 3.0 0.00 0.00 0.00 67 1015.3
20260905145544 85 188 1.0 3.0 0.00 0.00 0.00 67 1015.3
20260905145035 86 188 1.0 3.0 0.00 0.00 0.00 66 1015.1
20260905144546 86 188 1.0 3.0 0.00 0.00 0.00 66 1014.9
20260905144056 85 188 1.0 2.0 0.00 0.00 0.00 67 1014.8
20260905143603 85 188 1.0 2.0 0.00 0.00 0.00 67 1014.8
20260905143040 85 188 0.0 2.0 0.00 0.00 0.00 67 1014.8
20260905142535 84 188 1.0 3.0 0.00 0.00 0.00 69 1014.7
20260905142034 83 190 1.0 2.0 0.00 0.00 0.00 71 1014.5
20260905141611 83 190 1.0 3.0 0.00 0.00 0.00 71 1014.6
20260905141048 83 190 1.0 3.0 0.00 0.00 0.00 70 1014.4
20260905140611 83 191 1.0 2.0 0.00 0.00 0.00 70 1014.3
20260905140103 82 191 1.0 2.0 0.00 0.00 0.00 71 1014.5
20260905135544 82 191 0.0 2.0 0.00 0.00 0.00 73 1014.6
20260905135103 81 191 0.0 0.0 0.00 0.00 0.00 73 1014.8
20260905134544 81 191 0.0 1.0 0.00 0.00 0.00 74 1014.8
20260905134114 81 191 0.0 2.0 0.00 0.00 0.00 75 1014.8
20260905133537 81 191 0.0 2.0 0.00 0.00 0.00 75 1014.6
20260905133042 80 191 0.0 1.0 0.00 0.00 0.00 74 1014.5
20260905132534 80 191 0.0 2.0 0.00 0.00 0.00 74 1014.3
20260905132053 80 191 1.0 2.0 0.00 0.00 0.00 74 1014.1
20260905131532 80 191 0.0 1.0 0.00 0.00 0.00 75 1014.1
20260905131040 79 191 0.0 1.0 0.00 0.00 0.00 75 1014.1
20260905130557 79 191 0.0 1.0 0.00 0.00 0.00 76 1014.1
20260905130057 78 191 0.0 2.0 0.00 0.00 0.00 77 1014.2
20260905125601 78 191 1.0 2.0 0.00 0.00 0.00 78 1014.1
20260905125053 78 191 1.0 2.0 0.00 0.00 0.00 78 1014.1
20260905124550 78 191 0.0 1.0 0.00 0.00 0.00 78 1014.0
20260905123544 78 191 0.0 2.0 0.00 0.00 0.00 78 1013.8
20260905123038 78 191 1.0 2.0 0.00 0.00 0.00 77 1013.8
20260905122548 78 191 1.0 2.0 0.00 0.00 0.00 78 1013.6
20260905122036 78 191 1.0 2.0 0.00 0.00 0.00 78 1013.5
20260905121544 78 191 1.0 2.0 0.00 0.00 0.00 78 1013.4
20260905121049 77 191 1.0 2.0 0.00 0.00 0.00 78 1013.4
20260905120609 77 191 1.0 2.0 0.00 0.00 0.00 78 1013.5
20260905120045 77 191 1.0 2.0 0.00 0.00 0.00 79 1013.5
20260905115545 77 191 1.0 2.0 0.00 0.00 0.00 79 1013.5
20260905115044 77 191 1.0 2.0 0.00 0.00 0.00 79 1013.4
20260905114555 77 191 1.0 1.0 0.00 0.00 0.00 79 1013.5
20260905114036 78 191 0.0 1.0 0.00 0.00 0.00 78 1013.5
20260905113543 78 191 0.0 1.0 0.00 0.00 0.00 78 1013.5
20260905113044 78 191 0.0 1.0 0.00 0.00 0.00 77 1013.4
20260905112537 78 191 1.0 2.0 0.00 0.00 0.00 77 1013.2
20260905112042 78 191 1.0 2.0 0.00 0.00 0.00 77 1013.2
20260905111550 78 191 1.0 2.0 0.00 0.00 0.00 77 1013.2
20260905111102 78 191 1.0 2.0 0.00 0.00 0.00 77 1013.4
20260905110555 78 191 1.0 2.0 0.00 0.00 0.00 77 1013.3
20260905110040 78 191 1.0 2.0 0.00 0.00 0.00 77 1013.2
20260905105616 78 191 0.0 1.0 0.00 0.00 0.00 77 1013.2
20260905105053 78 191 0.0 2.0 0.00 0.00 0.00 77 1013.2
20260905104534 78 191 0.0 2.0 0.00 0.00 0.00 77 1013.3
20260905104046 79 191 0.0 1.0 0.00 0.00 0.00 77 1013.2
20260905103535 79 191 0.0 2.0 0.00 0.00 0.00 76 1013.1
20260905103036 79 191 1.0 2.0 0.00 0.00 0.00 76 1013.0
20260905102536 79 191 1.0 2.0 0.00 0.00 0.00 76 1013.0
20260905102047 79 191 1.0 2.0 0.00 0.00 0.00 76 1012.9
20260905101538 79 191 0.0 2.0 0.00 0.00 0.00 75 1012.9
20260905101041 79 191 0.0 2.0 0.00 0.00 0.00 75 1012.8
20260905100618 79 191 0.0 2.0 0.00 0.00 0.00 75 1012.8
20260905100100 79 191 0.0 3.0 0.00 0.00 0.00 75 1012.8
20260905095555 79 191 1.0 3.0 0.00 0.00 0.00 75 1012.8
20260905095108 80 189 1.0 3.0 0.00 0.00 0.00 75 1012.7
20260905094534 79 190 1.0 3.0 0.00 0.00 0.00 75 1012.7
20260905094048 79 187 1.0 4.0 0.00 0.00 0.00 75 1012.6
20260905093532 79 187 1.0 4.0 0.00 0.00 0.00 76 1012.5
20260905093049 79 187 1.0 3.0 0.00 0.00 0.00 76 1012.5
20260905092551 79 188 1.0 3.0 0.00 0.00 0.00 77 1012.5
20260905092046 79 188 1.0 4.0 0.00 0.00 0.00 77 1012.5
20260905091533 79 188 2.0 4.0 0.00 0.00 0.00 77 1012.6
20260905091109 79 188 2.0 3.0 0.00 0.00 0.00 77 1012.7
20260905090612 80 189 1.0 3.0 0.00 0.00 0.00 77 1012.6
20260905090032 80 189 1.0 3.0 0.00 0.00 0.00 76 1012.6
20260905085539 80 189 2.0 3.0 0.00 0.00 0.00 76 1012.7
20260905085043 80 189 1.0 3.0 0.00 0.00 0.00 76 1012.8
20260905084545 80 189 1.0 2.0 0.00 0.00 0.00 76 1012.8
20260905084055 80 189 2.0 2.0 0.00 0.00 0.00 76 1012.8
20260905083612 80 189 1.0 2.0 0.00 0.00 0.00 77 1012.8
20260905083046 80 189 1.0 2.0 0.00 0.00 0.00 77 1012.9
20260905082536 80 189 1.0 2.0 0.00 0.00 0.00 78 1012.9
20260905082036 80 189 1.0 2.0 0.00 0.00 0.00 78 1012.9
20260905081537 80 189 0.0 2.0 0.00 0.00 0.00 77 1013.0
20260905081037 80 189 1.0 2.0 0.00 0.00 0.00 77 1013.0
20260905080554 80 189 1.0 2.0 0.00 0.00 0.00 77 1013.1
20260905080040 80 189 1.0 2.0 0.00 0.00 0.00 77 1013.1
20260905075550 80 189 0.0 1.0 0.00 0.00 0.00 76 1013.2
20260905075047 80 189 0.0 1.0 0.00 0.00 0.00 76 1013.2
20260905074556 80 189 0.0 1.0 0.00 0.00 0.00 76 1013.2
20260905074034 81 189 0.0 1.0 0.00 0.00 0.00 76 1013.2
20260905073555 81 189 0.0 1.0 0.00 0.00 0.00 75 1013.3
20260905073042 81 189 0.0 2.0 0.00 0.00 0.00 75 1013.3
20260905072545 81 189 0.0 2.0 0.00 0.00 0.00 75 1013.3
20260905072053 81 189 1.0 2.0 0.00 0.00 0.00 75 1013.4
20260905071557 81 189 0.0 2.0 0.00 0.00 0.00 74 1013.4
20260905071110 81 189 1.0 3.0 0.00 0.00 0.00 74 1013.4
20260905070611 81 189 1.0 3.0 0.00 0.00 0.00 74 1013.4
20260905070036 81 189 0.0 1.0 0.00 0.00 0.00 75 1013.3
20260905065549 81 189 0.0 1.0 0.00 0.00 0.00 75 1013.4
20260905065038 81 189 0.0 2.0 0.00 0.00 0.00 75 1013.4
20260905064539 81 189 0.0 2.0 0.00 0.00 0.00 75 1013.5
20260905064045 81 189 1.0 2.0 0.00 0.00 0.00 75 1013.5
20260905063555 81 189 0.0 2.0 0.00 0.00 0.00 75 1013.5
20260905063038 81 189 1.0 2.0 0.00 0.00 0.00 75 1013.6
20260905062606 81 189 1.0 1.0 0.00 0.00 0.00 76 1013.5
20260905062040 81 189 0.0 1.0 0.00 0.00 0.00 75 1013.5
20260905061537 82 189 0.0 0.0 0.00 0.00 0.00 75 1013.5
20260905061050 82 189 0.0 1.0 0.00 0.00 0.00 75 1013.6
20260905060607 82 189 0.0 1.0 0.00 0.00 0.00 74 1013.5
20260905060035 82 189 0.0 1.0 0.00 0.00 0.00 74 1013.6
20260905055553 82 189 0.0 2.0 0.00 0.00 0.00 74 1013.6
20260905055038 83 189 0.0 2.0 0.00 0.00 0.00 73 1013.5
20260905054603 83 189 1.0 2.0 0.00 0.00 0.00 73 1013.5
20260905054050 83 189 0.0 2.0 0.00 0.00 0.00 73 1013.5
20260905053542 83 189 1.0 3.0 0.00 0.00 0.00 72 1013.5
20260905053034 83 189 0.0 3.0 0.00 0.00 0.00 73 1013.4
20260905052548 83 185 1.0 3.0 0.00 0.00 0.00 73 1013.3
20260905052045 83 191 0.0 2.0 0.00 0.00 0.00 73 1013.3
20260905051603 83 191 0.0 1.0 0.00 0.00 0.00 73 1013.3
20260905051035 83 191 0.0 1.0 0.00 0.00 0.00 73 1013.3
20260905050603 83 191 0.0 1.0 0.00 0.00 0.00 73 1013.4
20260905050056 83 191 0.0 2.0 0.00 0.00 0.00 73 1013.3
20260905045557 83 191 0.0 2.0 0.00 0.00 0.00 74 1013.2
20260905045048 83 191 0.0 2.0 0.00 0.00 0.00 74 1013.3
20260905044542 84 191 0.0 2.0 0.00 0.00 0.00 74 1013.2
20260905044107 84 191 0.0 2.0 0.00 0.00 0.00 74 1013.1
20260905043605 84 191 0.0 2.0 0.00 0.00 0.00 74 1013.0
20260905043032 84 191 1.0 2.0 0.00 0.00 0.00 74 1013.0
20260905042550 84 195 1.0 2.0 0.00 0.00 0.00 73 1013.0
20260905042027 84 195 1.0 2.0 0.00 0.00 0.00 73 1013.0
20260905041600 85 195 1.0 3.0 0.00 0.00 0.00 73 1013.0
20260905041037 85 195 1.0 3.0 0.00 0.00 0.00 72 1013.0
20260905040609 85 195 0.0 3.0 0.00 0.00 0.00 72 1012.9
20260905040047 85 195 1.0 4.0 0.00 0.00 0.00 72 1013.0
20260905035545 85 195 1.0 4.0 0.00 0.00 0.00 72 1012.9
20260905035043 85 194 1.0 3.0 0.00 0.00 0.00 72 1013.0
20260905034603 85 195 1.0 3.0 0.00 0.00 0.00 72 1012.9